#Datum;Uhrzeit;WR;Pac;DaySum;Status;WR;Pac;DaySum;Status;Pdc1;Udc;Temp;WR;Pac;DaySum;Status;Pdc1;Udc;Temp;WR;Pac;DaySum;Status;Pdc1;Udc;Temp;WR;Pac;DaySum;Status;Pdc1;Pdc2;Udc1;Udc2;Temp;WR;Pac;DaySum;Status;Pdc1;Pdc2;Udc1;Udc2;Temp;WR;Pac;DaySum;Status;Pdc1;Udc;Temp;WR;Pac;DaySum;Status;Pdc1;Udc;Temp;WR;Pac;DaySum;Status;Pdc1;Udc;Temp
21.11.17;23:55:00;1;190;7894;0;2;0;925;0;0;0;0;3;0;447;0;0;0;0;4;0;593;0;0;0;0;5;0;2303;0;0;0;0;0;0;6;0;1490;0;0;0;0;0;0;7;0;864;0;0;0;0;8;0;881;0;0;0;0;9;0;350;0;0;0;0
21.11.17;23:50:00;1;190;7878;0;2;0;925;0;0;0;0;3;0;447;0;0;0;0;4;0;593;0;0;0;0;5;0;2303;0;0;0;0;0;0;6;0;1490;0;0;0;0;0;0;7;0;864;0;0;0;0;8;0;881;0;0;0;0;9;0;350;0;0;0;0
21.11.17;23:45:00;1;191;7862;0;2;0;925;0;0;0;0;3;0;447;0;0;0;0;4;0;593;0;0;0;0;5;0;2303;0;0;0;0;0;0;6;0;1490;0;0;0;0;0;0;7;0;864;0;0;0;0;8;0;881;0;0;0;0;9;0;350;0;0;0;0
21.11.17;23:40:00;1;190;7846;0;2;0;925;0;0;0;0;3;0;447;0;0;0;0;4;0;593;0;0;0;0;5;0;2303;0;0;0;0;0;0;6;0;1490;0;0;0;0;0;0;7;0;864;0;0;0;0;8;0;881;0;0;0;0;9;0;350;0;0;0;0
21.11.17;23:35:00;1;192;7830;0;2;0;925;0;0;0;0;3;0;447;0;0;0;0;4;0;593;0;0;0;0;5;0;2303;0;0;0;0;0;0;6;0;1490;0;0;0;0;0;0;7;0;864;0;0;0;0;8;0;881;0;0;0;0;9;0;350;0;0;0;0
21.11.17;23:30:00;1;192;7814;0;2;0;925;0;0;0;0;3;0;447;0;0;0;0;4;0;593;0;0;0;0;5;0;2303;0;0;0;0;0;0;6;0;1490;0;0;0;0;0;0;7;0;864;0;0;0;0;8;0;881;0;0;0;0;9;0;350;0;0;0;0
21.11.17;23:25:00;1;191;7798;0;2;0;925;0;0;0;0;3;0;447;0;0;0;0;4;0;593;0;0;0;0;5;0;2303;0;0;0;0;0;0;6;0;1490;0;0;0;0;0;0;7;0;864;0;0;0;0;8;0;881;0;0;0;0;9;0;350;0;0;0;0
21.11.17;23:20:00;1;233;7782;0;2;0;925;0;0;0;0;3;0;447;0;0;0;0;4;0;593;0;0;0;0;5;0;2303;0;0;0;0;0;0;6;0;1490;0;0;0;0;0;0;7;0;864;0;0;0;0;8;0;881;0;0;0;0;9;0;350;0;0;0;0
21.11.17;23:15:00;1;236;7762;0;2;0;925;0;0;0;0;3;0;447;0;0;0;0;4;0;593;0;0;0;0;5;0;2303;0;0;0;0;0;0;6;0;1490;0;0;0;0;0;0;7;0;864;0;0;0;0;8;0;881;0;0;0;0;9;0;350;0;0;0;0
21.11.17;23:10:00;1;239;7743;0;2;0;925;0;0;0;0;3;0;447;0;0;0;0;4;0;593;0;0;0;0;5;0;2303;0;0;0;0;0;0;6;0;1490;0;0;0;0;0;0;7;0;864;0;0;0;0;8;0;881;0;0;0;0;9;0;350;0;0;0;0
21.11.17;23:05:00;1;204;7723;0;2;0;925;0;0;0;0;3;0;447;0;0;0;0;4;0;593;0;0;0;0;5;0;2303;0;0;0;0;0;0;6;0;1490;0;0;0;0;0;0;7;0;864;0;0;0;0;8;0;881;0;0;0;0;9;0;350;0;0;0;0
21.11.17;23:00:00;1;198;7705;0;2;0;925;0;0;0;0;3;0;447;0;0;0;0;4;0;593;0;0;0;0;5;0;2303;0;0;0;0;0;0;6;0;1490;0;0;0;0;0;0;7;0;864;0;0;0;0;8;0;881;0;0;0;0;9;0;350;0;0;0;0
21.11.17;22:55:00;1;198;7689;0;2;0;925;0;0;0;0;3;0;447;0;0;0;0;4;0;593;0;0;0;0;5;0;2303;2;0;0;0;0;0;6;0;1490;2;0;0;0;0;0;7;0;864;0;0;0;0;8;0;881;0;0;0;0;9;0;350;0;0;0;0
21.11.17;22:50:00;1;253;7672;0;2;0;925;0;0;0;0;3;0;447;0;0;0;0;4;0;593;0;0;0;0;5;0;2303;2;0;0;0;0;0;6;0;1490;2;0;0;0;0;0;7;0;864;0;0;0;0;8;0;881;0;0;0;0;9;0;350;0;0;0;0
21.11.17;22:45:00;1;249;7650;0;2;0;925;0;0;0;0;3;0;447;0;0;0;0;4;0;593;0;0;0;0;5;0;2303;2;0;0;0;0;0;6;0;1490;2;0;0;0;0;0;7;0;864;0;0;0;0;8;0;881;0;0;0;0;9;0;350;0;0;0;0
21.11.17;22:40:00;1;256;7630;0;2;0;925;0;0;0;0;3;0;447;0;0;0;0;4;0;593;0;0;0;0;5;0;2303;2;0;0;0;0;0;6;0;1490;2;0;0;0;0;0;7;0;864;0;0;0;0;8;0;881;0;0;0;0;9;0;350;0;0;0;0
21.11.17;22:35:00;1;237;7608;0;2;0;925;0;0;0;0;3;0;447;0;0;0;0;4;0;593;0;0;0;0;5;0;2303;2;0;0;0;0;0;6;0;1490;2;0;0;0;0;0;7;0;864;0;0;0;0;8;0;881;0;0;0;0;9;0;350;0;0;0;0
21.11.17;22:30:00;1;186;7588;0;2;0;925;0;0;0;0;3;0;447;0;0;0;0;4;0;593;0;0;0;0;5;0;2303;2;0;0;0;0;0;6;0;1490;2;0;0;0;0;0;7;0;864;0;0;0;0;8;0;881;0;0;0;0;9;0;350;0;0;0;0
21.11.17;22:25:00;1;233;7573;0;2;0;925;0;0;0;0;3;0;447;0;0;0;0;4;0;593;0;0;0;0;5;0;2303;2;0;0;0;0;0;6;0;1490;2;0;0;0;0;0;7;0;864;0;0;0;0;8;0;881;0;0;0;0;9;0;350;0;0;0;0
21.11.17;22:20:00;1;300;7552;0;2;0;925;0;0;0;0;3;0;447;0;0;0;0;4;0;593;0;0;0;0;5;0;2303;2;0;0;0;0;0;6;0;1490;2;0;0;0;0;0;7;0;864;0;0;0;0;8;0;881;0;0;0;0;9;0;350;0;0;0;0
21.11.17;22:15:00;1;297;7527;0;2;0;925;0;0;0;0;3;0;447;0;0;0;0;4;0;593;0;0;0;0;5;0;2303;2;0;0;0;0;0;6;0;1490;2;0;0;0;0;0;7;0;864;0;0;0;0;8;0;881;0;0;0;0;9;0;350;0;0;0;0
21.11.17;22:10:00;1;294;7502;0;2;0;925;0;0;0;0;3;0;447;0;0;0;0;4;0;593;0;0;0;0;5;0;2303;2;0;0;0;0;0;6;0;1490;2;0;0;0;0;0;7;0;864;0;0;0;0;8;0;881;0;0;0;0;9;0;350;0;0;0;0
21.11.17;22:05:00;1;258;7478;0;2;0;925;0;0;0;0;3;0;447;0;0;0;0;4;0;593;0;0;0;0;5;0;2303;2;0;0;0;0;0;6;0;1490;2;0;0;0;0;0;7;0;864;0;0;0;0;8;0;881;0;0;0;0;9;0;350;0;0;0;0
21.11.17;22:00:00;1;262;7457;0;2;0;925;0;0;0;0;3;0;447;0;0;0;0;4;0;593;0;0;0;0;5;0;2303;2;0;0;0;0;0;6;0;1490;2;0;0;0;0;0;7;0;864;0;0;0;0;8;0;881;0;0;0;0;9;0;350;0;0;0;0
21.11.17;21:55:00;1;260;7435;0;2;0;925;0;0;0;0;3;0;447;0;0;0;0;4;0;593;0;0;0;0;5;0;2303;2;0;0;0;0;0;6;0;1490;2;0;0;0;0;0;7;0;864;0;0;0;0;8;0;881;0;0;0;0;9;0;350;0;0;0;0
21.11.17;21:50:00;1;243;7413;0;2;0;925;0;0;0;0;3;0;447;0;0;0;0;4;0;593;0;0;0;0;5;0;2303;2;0;0;0;0;0;6;0;1490;2;0;0;0;0;0;7;0;864;0;0;0;0;8;0;881;0;0;0;0;9;0;350;0;0;0;0
21.11.17;21:45:00;1;193;7392;0;2;0;925;0;0;0;0;3;0;447;0;0;0;0;4;0;593;0;0;0;0;5;0;2303;2;0;0;0;0;0;6;0;1490;2;0;0;0;0;0;7;0;864;0;0;0;0;8;0;881;0;0;0;0;9;0;350;0;0;0;0
21.11.17;21:40:00;1;193;7376;0;2;0;925;0;0;0;0;3;0;447;0;0;0;0;4;0;593;0;0;0;0;5;0;2303;2;0;0;0;0;0;6;0;1490;2;0;0;0;0;0;7;0;864;0;0;0;0;8;0;881;0;0;0;0;9;0;350;0;0;0;0
21.11.17;21:35:00;1;193;7360;0;2;0;925;0;0;0;0;3;0;447;0;0;0;0;4;0;593;0;0;0;0;5;0;2303;2;0;0;0;0;0;6;0;1490;2;0;0;0;0;0;7;0;864;0;0;0;0;8;0;881;0;0;0;0;9;0;350;0;0;0;0
21.11.17;21:30:00;1;193;7344;0;2;0;925;0;0;0;0;3;0;447;0;0;0;0;4;0;593;0;0;0;0;5;0;2303;2;0;0;0;0;0;6;0;1490;2;0;0;0;0;0;7;0;864;0;0;0;0;8;0;881;0;0;0;0;9;0;350;0;0;0;0
21.11.17;21:25:00;1;228;7328;0;2;0;925;0;0;0;0;3;0;447;0;0;0;0;4;0;593;0;0;0;0;5;0;2303;2;0;0;0;0;0;6;0;1490;2;0;0;0;0;0;7;0;864;0;0;0;0;8;0;881;0;0;0;0;9;0;350;0;0;0;0
21.11.17;21:20:00;1;234;7309;0;2;0;925;0;0;0;0;3;0;447;0;0;0;0;4;0;593;0;0;0;0;5;0;2303;2;0;0;0;0;0;6;0;1490;2;0;0;0;0;0;7;0;864;0;0;0;0;8;0;881;0;0;0;0;9;0;350;0;0;0;0
21.11.17;21:15:00;1;237;7289;0;2;0;925;0;0;0;0;3;0;447;0;0;0;0;4;0;593;0;0;0;0;5;0;2303;2;0;0;0;0;0;6;0;1490;2;0;0;0;0;0;7;0;864;0;0;0;0;8;0;881;0;0;0;0;9;0;350;0;0;0;0
21.11.17;21:10:00;1;207;7269;0;2;0;925;0;0;0;0;3;0;447;0;0;0;0;4;0;593;0;0;0;0;5;0;2303;2;0;0;0;0;0;6;0;1490;2;0;0;0;0;0;7;0;864;0;0;0;0;8;0;881;0;0;0;0;9;0;350;0;0;0;0
21.11.17;21:05:00;1;192;7251;0;2;0;925;0;0;0;0;3;0;447;0;0;0;0;4;0;593;0;0;0;0;5;0;2303;2;0;0;0;0;0;6;0;1490;2;0;0;0;0;0;7;0;864;0;0;0;0;8;0;881;0;0;0;0;9;0;350;0;0;0;0
21.11.17;21:00:00;1;192;7235;0;2;0;925;0;0;0;0;3;0;447;0;0;0;0;4;0;593;0;0;0;0;5;0;2303;2;0;0;0;0;0;6;0;1490;2;0;0;0;0;0;7;0;864;0;0;0;0;8;0;881;0;0;0;0;9;0;350;0;0;0;0
21.11.17;20:55:00;1;192;7219;0;2;0;925;0;0;0;0;3;0;447;0;0;0;0;4;0;593;0;0;0;0;5;0;2303;2;0;0;0;0;0;6;0;1490;2;0;0;0;0;0;7;0;864;0;0;0;0;8;0;881;0;0;0;0;9;0;350;0;0;0;0
21.11.17;20:50:00;1;192;7203;0;2;0;925;0;0;0;0;3;0;447;0;0;0;0;4;0;593;0;0;0;0;5;0;2303;2;0;0;0;0;0;6;0;1490;2;0;0;0;0;0;7;0;864;0;0;0;0;8;0;881;0;0;0;0;9;0;350;0;0;0;0
21.11.17;20:45:00;1;191;7187;0;2;0;925;0;0;0;0;3;0;447;0;0;0;0;4;0;593;0;0;0;0;5;0;2303;2;0;0;0;0;0;6;0;1490;2;0;0;0;0;0;7;0;864;0;0;0;0;8;0;881;0;0;0;0;9;0;350;0;0;0;0
21.11.17;20:40:00;1;191;7171;0;2;0;925;0;0;0;0;3;0;447;0;0;0;0;4;0;593;0;0;0;0;5;0;2303;2;0;0;0;0;0;6;0;1490;2;0;0;0;0;0;7;0;864;0;0;0;0;8;0;881;0;0;0;0;9;0;350;0;0;0;0
21.11.17;20:35:00;1;194;7155;0;2;0;925;0;0;0;0;3;0;447;0;0;0;0;4;0;593;0;0;0;0;5;0;2303;2;0;0;0;0;0;6;0;1490;2;0;0;0;0;0;7;0;864;0;0;0;0;8;0;881;0;0;0;0;9;0;350;0;0;0;0
21.11.17;20:30:00;1;193;7139;0;2;0;925;0;0;0;0;3;0;447;0;0;0;0;4;0;593;0;0;0;0;5;0;2303;2;0;0;0;0;0;6;0;1490;2;0;0;0;0;0;7;0;864;0;0;0;0;8;0;881;0;0;0;0;9;0;350;0;0;0;0
21.11.17;20:25:00;1;229;7123;0;2;0;925;0;0;0;0;3;0;447;0;0;0;0;4;0;593;0;0;0;0;5;0;2303;2;0;0;0;0;0;6;0;1490;2;0;0;0;0;0;7;0;864;0;0;0;0;8;0;881;0;0;0;0;9;0;350;0;0;0;0
21.11.17;20:20:00;1;236;7104;0;2;0;925;0;0;0;0;3;0;447;0;0;0;0;4;0;593;0;0;0;0;5;0;2303;2;0;0;0;0;0;6;0;1490;2;0;0;0;0;0;7;0;864;0;0;0;0;8;0;881;0;0;0;0;9;0;350;0;0;0;0
21.11.17;20:15:00;1;303;7084;0;2;0;925;0;0;0;0;3;0;447;0;0;0;0;4;0;593;0;0;0;0;5;0;2303;2;0;0;0;0;0;6;0;1490;2;0;0;0;0;0;7;0;864;0;0;0;0;8;0;881;0;0;0;0;9;0;350;0;0;0;0
21.11.17;20:10:00;1;273;7058;0;2;0;925;0;0;0;0;3;0;447;0;0;0;0;4;0;593;0;0;0;0;5;0;2303;2;0;0;0;0;0;6;0;1490;2;0;0;0;0;0;7;0;864;0;0;0;0;8;0;881;0;0;0;0;9;0;350;0;0;0;0
21.11.17;20:05:00;1;257;7035;0;2;0;925;0;0;0;0;3;0;447;0;0;0;0;4;0;593;0;0;0;0;5;0;2303;2;0;0;0;0;0;6;0;1490;2;0;0;0;0;0;7;0;864;0;0;0;0;8;0;881;0;0;0;0;9;0;350;0;0;0;0
21.11.17;20:00:00;1;259;7014;0;2;0;925;0;0;0;0;3;0;447;0;0;0;0;4;0;593;0;0;0;0;5;0;2303;2;0;0;0;0;0;6;0;1490;2;0;0;0;0;0;7;0;864;0;0;0;0;8;0;881;0;0;0;0;9;0;350;0;0;0;0
21.11.17;19:55:00;1;260;6992;0;2;0;925;0;0;0;0;3;0;447;0;0;0;0;4;0;593;0;0;0;0;5;0;2303;2;0;0;0;0;0;6;0;1490;2;0;0;0;0;0;7;0;864;0;0;0;0;8;0;881;0;0;0;0;9;0;350;0;0;0;0
21.11.17;19:50:00;1;262;6971;0;2;0;925;0;0;0;0;3;0;447;0;0;0;0;4;0;593;0;0;0;0;5;0;2303;2;0;0;0;0;0;6;0;1490;2;0;0;0;0;0;7;0;864;0;0;0;0;8;0;881;0;0;0;0;9;0;350;0;0;0;0
21.11.17;19:45:00;1;262;6949;0;2;0;925;0;0;0;0;3;0;447;0;0;0;0;4;0;593;0;0;0;0;5;0;2303;2;0;0;0;0;0;6;0;1490;2;0;0;0;0;0;7;0;864;0;0;0;0;8;0;881;0;0;0;0;9;0;350;0;0;0;0
21.11.17;19:40:00;1;227;6927;0;2;0;925;0;0;0;0;3;0;447;0;0;0;0;4;0;593;0;0;0;0;5;0;2303;2;0;0;0;0;0;6;0;1490;2;0;0;0;0;0;7;0;864;0;0;0;0;8;0;881;0;0;0;0;9;0;350;0;0;0;0
21.11.17;19:35:00;1;193;6908;0;2;0;925;0;0;0;0;3;0;447;0;0;0;0;4;0;593;0;0;0;0;5;0;2303;2;0;0;0;0;0;6;0;1490;2;0;0;0;0;0;7;0;864;0;0;0;0;8;0;881;0;0;0;0;9;0;350;0;0;0;0
21.11.17;19:30:00;1;206;6892;0;2;0;925;0;0;0;0;3;0;447;0;0;0;0;4;0;593;0;0;0;0;5;0;2303;2;0;0;0;0;0;6;0;1490;2;0;0;0;0;0;7;0;864;0;0;0;0;8;0;881;0;0;0;0;9;0;350;0;0;0;0
21.11.17;19:25:00;1;236;6875;0;2;0;925;0;0;0;0;3;0;447;0;0;0;0;4;0;593;0;0;0;0;5;0;2303;2;0;0;0;0;0;6;0;1490;2;0;0;0;0;0;7;0;864;0;0;0;0;8;0;881;0;0;0;0;9;0;350;0;0;0;0
21.11.17;19:20:00;1;236;6855;0;2;0;925;0;0;0;0;3;0;447;0;0;0;0;4;0;593;0;0;0;0;5;0;2303;2;0;0;0;0;0;6;0;1490;2;0;0;0;0;0;7;0;864;0;0;0;0;8;0;881;0;0;0;0;9;0;350;0;0;0;0
21.11.17;19:15:00;1;237;6835;0;2;0;925;0;0;0;0;3;0;447;0;0;0;0;4;0;593;0;0;0;0;5;0;2303;2;0;0;0;0;0;6;0;1490;2;0;0;0;0;0;7;0;864;0;0;0;0;8;0;881;0;0;0;0;9;0;350;0;0;0;0
21.11.17;19:10:00;1;193;6816;0;2;0;925;0;0;0;0;3;0;447;0;0;0;0;4;0;593;0;0;0;0;5;0;2303;2;0;0;0;0;0;6;0;1490;2;0;0;0;0;0;7;0;864;0;0;0;0;8;0;881;0;0;0;0;9;0;350;0;0;0;0
21.11.17;19:05:00;1;193;6800;0;2;0;925;0;0;0;0;3;0;447;0;0;0;0;4;0;593;0;0;0;0;5;0;2303;2;0;0;0;0;0;6;0;1490;2;0;0;0;0;0;7;0;864;0;0;0;0;8;0;881;0;0;0;0;9;0;350;0;0;0;0
21.11.17;19:00:00;1;196;6784;0;2;0;925;0;0;0;0;3;0;447;0;0;0;0;4;0;593;0;0;0;0;5;0;2303;2;0;0;0;0;0;6;0;1490;2;0;0;0;0;0;7;0;864;0;0;0;0;8;0;881;0;0;0;0;9;0;350;0;0;0;0
21.11.17;18:55:00;1;196;6767;0;2;0;925;0;0;0;0;3;0;447;0;0;0;0;4;0;593;0;0;0;0;5;0;2303;2;0;0;0;0;0;6;0;1490;2;0;0;0;0;0;7;0;864;0;0;0;0;8;0;881;0;0;0;0;9;0;350;0;0;0;0
21.11.17;18:50:00;1;910;6751;0;2;0;925;0;0;0;0;3;0;447;0;0;0;0;4;0;593;0;0;0;0;5;0;2303;2;0;0;0;0;0;6;0;1490;2;0;0;0;0;0;7;0;864;0;0;0;0;8;0;881;0;0;0;0;9;0;350;0;0;0;0
21.11.17;18:45:00;1;2112;6663;0;2;0;925;0;0;0;0;3;0;447;0;0;0;0;4;0;593;0;0;0;0;5;0;2303;2;0;0;0;0;0;6;0;1490;2;0;0;0;0;0;7;0;864;0;0;0;0;8;0;881;0;0;0;0;9;0;350;0;0;0;0
21.11.17;18:40:00;1;2138;6488;0;2;0;925;0;0;0;0;3;0;447;0;0;0;0;4;0;593;0;0;0;0;5;0;2303;2;0;0;0;0;0;6;0;1490;2;0;0;0;0;0;7;0;864;0;0;0;0;8;0;881;0;0;0;0;9;0;350;0;0;0;0
21.11.17;18:35:00;1;1616;6310;0;2;0;925;0;0;0;0;3;0;447;0;0;0;0;4;0;593;0;0;0;0;5;0;2303;2;0;0;0;0;0;6;0;1490;2;0;0;0;0;0;7;0;864;0;0;0;0;8;0;881;0;0;0;0;9;0;350;0;0;0;0
21.11.17;18:30:00;1;1650;6220;0;2;0;925;0;0;0;0;3;0;447;0;0;0;0;4;0;593;0;0;0;0;5;0;2303;2;0;0;0;0;0;6;0;1490;2;0;0;0;0;0;7;0;864;0;0;0;0;8;0;881;0;0;0;0;9;0;350;0;0;0;0
21.11.17;18:25:00;1;349;6094;0;2;0;925;0;0;0;0;3;0;447;0;0;0;0;4;0;593;0;0;0;0;5;0;2303;2;0;0;0;0;0;6;0;1490;2;0;0;0;0;0;7;0;864;0;0;0;0;8;0;881;0;0;0;0;9;0;350;0;0;0;0
21.11.17;18:20:00;1;505;6063;0;2;0;925;0;0;0;0;3;0;447;0;0;0;0;4;0;593;0;0;0;0;5;0;2303;2;0;0;0;0;0;6;0;1490;2;0;0;0;0;0;7;0;864;0;0;0;0;8;0;881;0;0;0;0;9;0;350;0;0;0;0
21.11.17;18:15:00;1;1660;6021;0;2;0;925;0;0;0;0;3;0;447;0;0;0;0;4;0;593;0;0;0;0;5;0;2303;2;0;0;0;0;0;6;0;1490;2;0;0;0;0;0;7;0;864;0;0;0;0;8;0;881;0;0;0;0;9;0;350;0;0;0;0
21.11.17;18:10:00;1;1119;5865;0;2;0;925;0;0;0;0;3;0;447;0;0;0;0;4;0;593;0;0;0;0;5;0;2303;2;0;0;0;0;0;6;0;1490;2;0;0;0;0;0;7;0;864;0;0;0;0;8;0;881;0;0;0;0;9;0;350;0;0;0;0
21.11.17;18:05:00;1;1033;5787;0;2;0;925;0;0;0;0;3;0;447;0;0;0;0;4;0;593;0;0;0;0;5;0;2303;2;0;0;0;0;0;6;0;1490;2;0;0;0;0;0;7;0;864;0;0;0;0;8;0;881;0;0;0;0;9;0;350;0;0;0;0
21.11.17;18:00:00;1;1113;5667;0;2;0;925;0;0;0;0;3;0;447;0;0;0;0;4;0;593;0;0;0;0;5;0;2303;2;0;0;0;0;0;6;0;1490;2;0;0;0;0;0;7;0;864;0;0;0;0;8;0;881;0;0;0;0;9;0;350;0;0;0;0
21.11.17;17:55:00;1;2191;5553;0;2;0;925;0;0;0;0;3;0;447;0;0;0;0;4;0;593;0;0;0;0;5;0;2303;2;0;0;0;0;0;6;0;1490;2;0;0;0;0;0;7;0;864;0;0;0;0;8;0;881;0;0;0;0;9;0;350;0;0;0;0
21.11.17;17:50:00;1;2362;5382;0;2;0;925;0;0;0;0;3;0;447;0;0;0;0;4;0;593;0;0;0;0;5;0;2303;2;0;0;0;0;0;6;0;1490;2;0;0;0;0;0;7;0;864;0;0;0;0;8;0;881;0;0;0;0;9;0;350;0;0;0;0
21.11.17;17:45:00;1;378;5205;0;2;0;925;0;0;0;0;3;0;447;0;0;0;0;4;0;593;0;0;0;0;5;0;2303;2;0;0;0;0;0;6;0;1490;2;0;0;0;0;0;7;0;864;0;0;0;0;8;0;881;0;0;0;0;9;0;350;0;0;0;0
21.11.17;17:40:00;1;363;5173;0;2;0;925;0;0;0;0;3;0;447;0;0;0;0;4;0;593;0;0;0;0;5;0;2303;2;0;0;0;0;0;6;0;1490;2;0;0;0;0;0;7;0;864;0;0;0;0;8;0;881;0;0;0;0;9;0;350;0;0;0;0
21.11.17;17:35:00;1;509;5142;0;2;0;925;0;0;0;0;3;0;447;0;0;0;0;4;0;593;0;0;0;0;5;0;2303;2;0;0;0;0;0;6;0;1490;2;0;0;0;0;0;7;0;864;0;0;0;0;8;0;881;0;0;0;0;9;0;350;0;0;0;0
21.11.17;17:30:00;1;451;5102;0;2;0;925;0;0;0;0;3;0;447;0;0;0;0;4;0;593;0;0;0;0;5;0;2303;2;0;0;0;0;0;6;0;1490;2;0;0;0;0;0;7;0;864;0;0;0;0;8;0;881;0;0;0;0;9;0;350;0;0;0;0
21.11.17;17:25:00;1;449;5065;0;2;0;925;0;0;0;0;3;0;447;0;0;0;0;4;0;593;0;0;0;0;5;0;2303;2;0;0;0;0;0;6;0;1490;2;0;0;0;0;0;7;0;864;0;0;0;0;8;0;881;0;0;0;0;9;0;350;0;0;0;0
21.11.17;17:20:00;1;463;5027;0;2;0;925;0;0;0;0;3;0;447;0;0;0;0;4;0;593;0;0;0;0;5;0;2303;2;0;0;0;0;0;6;0;1490;2;0;0;0;0;0;7;0;864;0;0;0;0;8;0;881;0;0;0;0;9;0;350;0;0;0;0
21.11.17;17:15:00;1;408;4988;0;2;0;925;0;0;0;0;3;0;447;0;0;0;0;4;0;593;0;0;0;0;5;0;2303;2;0;0;0;0;0;6;0;1490;2;0;0;0;0;0;7;0;864;0;0;0;0;8;0;881;0;0;0;0;9;0;350;0;0;0;0
21.11.17;17:10:00;1;367;4954;0;2;0;925;0;0;0;0;3;0;447;0;0;0;0;4;0;593;0;0;0;0;5;0;2303;2;0;0;0;0;0;6;0;1490;2;0;0;0;0;0;7;0;864;0;0;0;0;8;0;881;0;0;0;0;9;0;350;0;0;0;0
21.11.17;17:05:00;1;299;4923;0;2;0;925;0;0;0;0;3;0;447;0;0;0;0;4;0;593;0;0;0;0;5;0;2303;2;0;0;0;0;0;6;0;1490;2;0;0;0;0;0;7;0;864;0;0;0;0;8;0;881;0;0;0;0;9;0;350;0;0;0;0
21.11.17;17:00:00;1;297;4899;0;2;0;925;0;0;0;0;3;0;447;0;0;0;0;4;0;593;0;0;0;0;5;0;2303;2;0;0;0;0;0;6;0;1490;2;0;0;0;0;0;7;0;864;0;0;0;0;8;0;881;0;0;0;0;9;0;350;0;0;0;0
21.11.17;16:55:00;1;299;4874;0;2;0;925;0;0;0;0;3;0;447;0;0;0;0;4;0;593;0;0;0;0;5;0;2303;2;0;0;0;0;0;6;0;1490;2;0;0;0;0;0;7;0;864;0;0;0;0;8;0;881;0;0;0;0;9;0;350;0;0;0;0
21.11.17;16:50:00;1;298;4848;0;2;0;925;0;0;0;0;3;0;447;0;0;0;0;4;0;593;0;0;0;0;5;0;2303;2;0;0;0;0;0;6;0;1490;2;0;0;0;0;0;7;0;864;0;0;0;0;8;0;881;0;0;0;0;9;0;350;0;0;0;0
21.11.17;16:45:00;1;279;4824;0;2;0;925;0;0;0;0;3;0;447;0;0;0;0;4;0;593;0;0;0;0;5;0;2303;2;0;0;0;0;0;6;0;1490;2;0;0;0;0;0;7;0;864;0;0;0;0;8;0;881;0;0;0;0;9;0;350;0;0;0;0
21.11.17;16:40:00;1;278;4800;0;2;0;925;0;0;0;0;3;0;447;0;0;0;0;4;0;593;0;0;0;0;5;0;2303;2;0;0;0;0;0;6;0;1490;2;0;0;0;0;0;7;0;864;0;0;0;0;8;0;881;0;0;0;0;9;0;350;0;0;0;0
21.11.17;16:35:00;1;306;4777;0;2;0;925;0;0;0;0;3;0;447;0;0;0;0;4;0;593;0;0;0;0;5;0;2303;2;0;0;0;0;0;6;0;1490;2;0;0;0;0;0;7;0;864;0;0;0;0;8;0;881;0;0;0;0;9;0;350;0;0;0;0
21.11.17;16:30:00;1;284;4752;0;2;0;925;0;0;35;1;3;0;447;6;0;275;12;4;0;593;0;0;0;0;5;0;2303;2;0;0;0;0;0;6;0;1490;2;0;0;0;0;0;7;0;864;0;0;0;0;8;0;881;0;0;0;0;9;0;350;0;0;0;0
21.11.17;16:25:00;1;279;4728;0;2;0;925;6;0;260;9;3;0;447;6;0;295;12;4;0;593;0;0;0;0;5;0;2303;2;0;0;0;0;0;6;0;1490;2;0;0;0;0;0;7;0;864;0;0;0;0;8;0;881;0;0;0;0;9;0;350;0;0;0;0
21.11.17;16:20:00;1;269;4705;0;2;0;925;6;0;282;9;3;0;447;6;0;316;12;4;0;593;0;0;63;8;5;0;2303;2;0;0;0;0;0;6;0;1490;1;0;0;0;0;0;7;0;864;0;0;0;0;8;0;881;0;0;0;0;9;0;350;0;0;0;0
21.11.17;16:15:00;1;229;4683;0;2;0;925;6;0;345;9;3;0;447;6;0;414;13;4;0;593;1;0;142;10;5;0;2303;2;0;0;309;316;16;6;0;1490;23;6;5;180;454;20;7;0;864;0;0;235;11;8;0;881;0;0;238;10;9;0;350;0;0;251;7
21.11.17;16:10:00;1;230;4663;0;2;0;925;6;0;365;9;3;0;447;6;1;440;13;4;0;593;1;0;174;10;5;0;2303;26;0;1;399;478;21;6;0;1490;23;5;5;302;415;20;7;0;864;6;0;332;14;8;0;881;6;0;340;13;9;0;350;6;0;360;9
21.11.17;16:05:00;1;236;4644;0;2;0;925;6;0;365;10;3;0;447;4;2;441;13;4;0;593;1;0;173;10;5;0;2303;23;0;0;401;571;21;6;0;1490;23;3;6;476;252;20;7;0;864;6;0;336;14;8;0;881;6;0;342;13;9;0;350;6;0;362;9
21.11.17;16:00:00;1;294;4624;0;2;0;925;6;0;387;10;3;2;447;3;4;449;13;4;0;593;1;0;209;10;5;5;2303;4;0;2;409;645;21;6;0;1490;23;5;4;206;562;21;7;0;864;6;0;404;14;8;0;881;6;0;395;13;9;0;350;6;0;423;9
21.11.17;15:55:00;1;294;4599;0;2;0;925;6;0;392;10;3;1;446;6;3;468;13;4;0;593;1;0;217;10;5;10;2302;4;2;2;409;647;21;6;0;1490;23;6;6;182;568;21;7;0;864;6;0;412;14;8;0;881;6;0;419;13;9;0;350;6;1;430;9
21.11.17;15:50:00;1;294;4575;0;2;0;925;6;0;392;10;3;1;446;6;3;477;13;4;0;593;1;0;211;11;5;7;2302;4;1;2;410;646;22;6;0;1490;23;4;5;257;569;22;7;0;864;6;0;415;14;8;0;881;6;0;420;14;9;0;350;6;0;451;9
21.11.17;15:45:00;1;295;4550;0;2;0;925;6;0;406;10;3;5;446;6;10;460;13;4;0;593;3;0;222;11;5;61;2301;1;14;21;387;613;23;6;31;1490;1;8;15;518;497;22;7;0;864;4;2;445;14;8;0;881;6;0;451;14;9;1;350;6;2;483;9
21.11.17;15:40:00;1;295;4526;0;2;3;925;6;7;409;10;3;0;446;6;5;510;13;4;2;593;3;2;206;11;5;102;2295;4;37;32;381;606;23;6;70;1487;4;31;41;462;443;23;7;6;864;3;14;440;14;8;4;881;3;10;447;14;9;2;350;6;2;511;9
21.11.17;15:35:00;1;321;4501;0;2;8;924;6;12;413;10;3;0;446;6;0;544;13;4;7;593;3;7;199;11;5;134;2286;4;56;49;381;606;23;6;88;1481;4;33;43;462;443;23;7;4;863;6;9;477;14;8;6;881;6;8;474;14;9;0;349;6;0;553;9
21.11.17;15:30:00;1;340;4474;0;2;7;924;6;11;417;10;3;6;446;3;16;502;13;4;12;592;3;12;199;11;5;146;2275;4;60;56;381;606;23;6;94;1473;4;32;41;462;443;23;7;3;863;6;10;484;15;8;7;881;6;10;485;14;9;5;349;3;11;511;9
21.11.17;15:25:00;1;287;4445;0;2;6;923;4;11;410;11;3;4;445;6;15;481;13;4;0;591;3;0;199;11;5;113;2263;4;44;41;381;606;23;6;79;1465;4;27;36;462;443;23;7;3;863;6;8;467;15;8;5;880;6;16;444;14;9;3;349;6;4;495;9
21.11.17;15:20:00;1;243;4422;0;2;10;922;6;18;401;11;3;1;445;6;6;515;13;4;0;591;3;0;200;11;5;113;2254;4;49;42;381;606;23;6;74;1459;4;35;46;462;443;23;7;2;863;6;6;472;15;8;1;880;6;6;472;15;9;0;349;6;4;520;9
21.11.17;15:15:00;1;233;4401;0;2;19;922;6;29;396;11;3;3;445;6;9;512;13;4;4;591;3;4;199;11;5;138;2244;4;56;53;381;606;23;6;90;1453;4;27;37;462;443;23;7;3;862;4;8;474;15;8;0;880;6;0;503;15;9;2;349;6;6;526;9
21.11.17;15:10:00;1;241;4382;0;2;63;920;4;87;358;11;3;4;445;6;9;531;13;4;19;591;3;20;198;11;5;173;2232;4;79;68;381;606;23;6;118;1445;4;54;70;462;443;23;7;41;862;4;71;355;15;8;44;880;4;73;379;15;9;7;348;6;13;515;9
21.11.17;15:05:00;1;232;4362;0;2;64;915;4;88;366;11;3;0;444;6;0;556;13;4;28;589;3;29;198;11;5;182;2218;4;80;72;381;606;23;6;120;1435;4;55;71;462;443;23;7;57;859;4;73;351;15;8;54;876;4;83;405;15;9;0;348;6;0;567;9
21.11.17;15:00:00;1;249;4342;0;2;75;909;4;100;358;11;3;12;444;3;22;513;13;4;30;587;3;31;198;11;5;203;2202;4;98;82;381;606;23;6;132;1425;4;56;67;462;443;23;7;59;854;4;83;428;15;8;51;871;4;82;439;15;9;9;348;4;16;521;9
21.11.17;14:55:00;1;273;4321;0;2;87;903;4;114;360;11;3;9;443;6;16;535;14;4;50;584;3;52;198;11;5;224;2185;4;108;95;381;606;23;6;148;1414;4;67;80;462;443;23;7;47;849;4;89;465;15;8;74;867;4;102;421;15;9;8;347;6;12;546;9
21.11.17;14:50:00;1;232;4298;0;2;96;896;4;121;366;11;3;8;442;6;13;544;14;4;52;580;3;53;198;11;5;244;2166;4;116;97;381;606;23;6;159;1401;4;76;87;462;443;23;7;58;845;4;95;469;15;8;72;861;4;109;445;15;9;13;346;6;21;525;9
21.11.17;14:45:00;1;233;4279;0;2;81;888;4;106;370;11;3;9;442;6;13;535;14;4;39;575;3;41;198;11;5;219;2146;4;104;87;381;606;23;6;141;1388;4;60;71;461;443;23;7;52;840;4;90;459;15;8;53;855;4;92;458;15;9;6;345;6;10;545;9
21.11.17;14:40:00;1;241;4259;0;2;84;881;4;108;357;11;3;15;441;6;23;513;14;4;44;572;3;46;198;11;5;219;2127;4;108;92;381;606;22;6;144;1376;4;62;74;462;443;23;7;47;836;4;89;458;15;8;62;851;4;94;454;15;9;12;345;6;19;520;10
21.11.17;14:35:00;1;274;4239;0;2;85;874;4;111;366;12;3;0;440;6;0;563;14;4;42;568;3;43;198;11;5;222;2109;4;111;94;381;606;22;6;148;1364;4;66;79;462;443;23;7;70;832;4;102;425;15;8;68;846;4;103;419;15;9;0;344;6;0;575;10
21.11.17;14:30:00;1;276;4216;0;2;100;867;4;128;369;12;3;18;440;4;29;525;14;4;61;565;3;63;198;11;5;252;2090;4;121;106;381;606;22;6;166;1351;4;87;99;462;443;23;7;86;826;4;118;425;15;8;74;840;4;114;463;15;9;14;344;4;21;528;10
21.11.17;14:25:00;1;269;4193;0;2;120;859;4;147;376;12;3;66;438;4;105;475;14;4;72;560;3;75;199;11;5;291;2069;4;133;118;381;606;22;6;183;1337;4;80;90;462;443;23;7;103;819;4;144;438;15;8;100;834;4;136;464;15;9;12;342;3;16;556;10
21.11.17;14:20:00;1;231;4170;0;2;131;849;4;157;378;12;3;72;433;4;108;497;14;4;84;554;3;88;200;11;5;311;2044;4;154;125;381;606;22;6;199;1322;4;104;116;462;443;23;7;112;811;4;148;445;15;8;106;825;4;148;463;15;9;22;341;6;29;540;10
21.11.17;14:15:00;1;233;4150;0;2;126;838;4;156;374;12;3;72;427;4;109;487;14;4;77;547;3;80;199;11;5;303;2019;4;148;122;381;606;22;6;197;1305;4;102;111;462;443;23;7;115;802;4;145;437;15;8;110;817;4;146;440;15;9;12;340;6;16;557;10
21.11.17;14:10:00;1;232;4131;0;2;123;827;4;153;374;12;3;69;421;4;106;484;14;4;77;540;3;80;199;11;5;297;1994;4;150;120;381;606;22;6;194;1288;4;80;85;462;443;22;7;112;792;4;138;466;15;8;101;808;4;136;475;15;9;10;339;6;13;562;10
21.11.17;14:05:00;1;234;4112;0;2;116;817;4;145;372;12;3;65;415;4;101;467;14;4;69;534;3;72;199;11;5;286;1969;4;137;122;381;606;22;6;189;1272;4;92;100;462;443;22;7;95;783;4;132;448;15;8;101;799;4;132;453;15;9;9;338;6;12;558;10
21.11.17;14:00:00;1;234;4092;0;2;124;807;4;150;372;12;3;68;409;4;104;467;14;4;75;528;3;78;199;11;5;294;1945;4;143;124;381;606;22;6;192;1256;4;115;125;462;443;22;7;105;775;4;137;417;15;8;107;791;4;138;415;15;9;19;337;4;25;535;10
21.11.17;13:55:00;1;233;4072;0;2;141;797;4;169;375;12;3;82;404;4;117;491;14;4;94;522;3;97;209;11;5;335;1920;4;169;142;381;606;22;6;215;1240;4;105;116;462;443;22;7;137;766;4;159;459;15;8;138;782;4;164;456;15;9;30;335;4;38;533;10
21.11.17;13:50:00;1;234;4053;0;2;115;785;4;143;376;12;3;65;397;4;101;464;14;4;74;514;3;77;198;11;5;283;1893;4;139;116;381;606;22;6;183;1222;4;82;88;462;443;22;7;90;755;4;132;443;15;8;90;770;4;130;457;15;9;8;333;6;11;559;10
21.11.17;13:45:00;1;288;4033;0;2;128;776;4;156;373;12;3;68;391;4;109;494;14;4;80;508;3;83;199;11;5;311;1869;4;150;126;381;606;22;6;196;1207;4;93;99;462;443;22;7;96;747;4;138;467;15;8;106;763;4;141;451;15;9;11;332;4;15;551;10
21.11.17;13:40:00;1;339;4009;0;2;118;765;4;145;368;12;3;63;386;4;101;491;14;4;69;501;3;72;199;11;5;289;1843;4;138;120;381;606;22;6;187;1190;4;102;110;462;443;22;7;88;740;4;129;446;15;8;93;754;4;130;454;15;9;18;330;3;25;534;10
21.11.17;13:35:00;1;384;3980;0;2;117;755;4;143;367;12;3;62;380;4;100;487;14;4;67;496;3;70;198;11;5;286;1819;4;139;119;381;606;22;6;185;1175;4;89;99;462;443;22;7;92;732;4;132;442;15;8;101;746;4;131;444;15;9;9;329;6;13;558;10
21.11.17;13:30:00;1;385;3948;0;2;131;745;4;158;372;12;3;73;375;4;108;473;14;4;78;490;3;81;199;11;5;307;1796;4;157;125;381;606;22;6;195;1159;4;66;74;462;443;22;7;111;725;4;143;456;15;8;111;738;4;150;437;15;9;34;328;6;46;527;10
21.11.17;13:25:00;1;371;3916;0;2;136;735;4;165;372;12;3;76;369;4;113;477;14;4;85;484;3;88;199;11;5;316;1770;4;156;130;381;606;22;6;206;1143;4;123;134;462;443;22;7;108;715;4;150;458;15;8;116;729;4;152;461;15;9;41;325;4;53;503;10
21.11.17;13:20:00;1;346;3885;0;2;149;723;4;174;368;12;3;85;363;4;117;479;14;4;104;476;3;108;212;11;5;332;1744;4;170;136;378;606;22;6;216;1125;4;93;105;462;443;22;7;119;706;4;165;439;15;8;133;719;4;165;441;15;9;60;322;6;81;493;11